Wind_Speed
4 5 5 5 4 5 5 5 5 6 6 7 7 6 6 6 6 6 7 7 7 8 8 8 9 9 9 9 9 9 10 10 10 10 10 10 11 12 12 11 12 12 11
5 5 5 5 5 6 7 7 7 6 7 7 7 7 7 6 6 6 7 7 8 8 9 8 9 9 9 10 10 10 10 11 11 11 11 11 12 12 13 13 13 12 12
6 6 6 6 6 6 6 7 7 7 7 7 7 6 6 6 6 6 7 7 7 8 8 9 9 9 9 10 10 10 11 12 12 12 13 13 13 13 14 14 14 13 13
6 7 7 6 6 6 5 5 6 7 6 6 7 6 6 7 6 7 7 7 7 7 7 8 9 9 9 9 9 10 11 12 12 13 13 14 14 15 15 15 15 14 14
7 7 7 6 6 6 6 5 5 6 6 6 6 7 7 7 7 7 8 7 7 7 7 7 8 8 8 9 9 10 11 11 12 12 13 14 15 15 15 15 15 15 14
7 7 8 7 7 6 6 6 6 6 6 6 7 7 7 7 7 7 8 8 7 7 7 7 8 8 8 9 10 10 11 11 11 12 13 13 14 15 15 15 15 15 14
7 8 8 7 7 7 6 6 6 6 7 7 7 7 7 6 7 7 7 8 8 8 8 8 9 9 9 9 10 11 11 11 11 11 12 13 13 14 15 15 15 15 15
8 8 8 8 7 7 7 7 7 7 7 7 7 7 6 7 7 7 8 8 8 8 8 9 10 10 10 10 11 10 10 11 11 11 11 12 13 13 14 15 15 15 15
9 9 9 8 8 8 8 8 8 8 8 8 7 7 7 7 8 8 8 8 8 9 9 10 10 11 11 11 12 12 11 12 11 11 11 11 12 12 13 14 14 14 15
10 10 10 9 10 10 10 9 9 9 9 9 9 8 8 8 8 8 8 9 9 9 10 10 11 11 12 11 11 12 12 12 13 12 12 12 12 13 14 14 14 15 15
11 11 11 10 10 10 11 11 11 11 11 11 10 9 8 8 8 8 9 9 9 10 11 11 12 11 12 12 12 12 12 13 14 14 13 13 13 14 14 15 15 15 16
13 12 11 11 11 11 11 11 12 12 12 12 12 11 9 9 8 9 9 10 10 11 11 11 12 12 13 13 13 13 13 14 15 16 15 15 14 15 15 16 16 16 16
14 14 13 12 12 12 12 13 13 13 13 13 13 12 12 11 11 11 11 11 11 12 12 12 13 13 14 14 14 14 14 15 16 17 17 17 17 17 17 16 17 18 18
15 16 15 14 13 14 14 14 14 14 13 13 13 13 13 13 13 13 12 13 13 13 13 14 14 14 15 15 16 16 16 16 17 17 18 18 18 18 18 18 18 19 19
17 16 17 17 15 15 15 15 15 15 15 15 15 15 14 14 14 14 14 14 14 14 14 15 16 16 16 17 17 18 18 18 18 18 19 19 19 19 19 19 20 20 21
17 18 18 18 17 17 16 16 17 17 17 16 17 17 17 16 16 16 16 16 16 16 15 15 16 17 17 17 17 18 19 19 20 20 20 20 20 20 20 20 20 21 22
19 19 19 19 18 18 18 18 18 19 19 18 18 18 18 18 18 17 17 17 17 17 16 16 17 17 18 18 18 19 20 20 21 21 21 20 20 20 21 21 22 22 23
20 20 19 19 19 19 19 19 19 19 20 20 20 20 20 20 19 19 19 19 19 18 18 17 18 18 18 19 19 19 20 20 21 21 21 21 21 21 21 22 23 23 24
20 21 20 20 20 20 20 20 20 20 20 21 21 21 21 21 20 20 20 20 20 20 20 19 19 19 19 19 19 20 20 20 20 20 21 21 22 22 22 23 23 23 24
21 22 21 21 21 20 21 21 21 21 21 21 21 21 21 21 21 21 21 21 21 21 20 20 20 20 20 20 20 20 20 20 20 20 21 22 23 23 24 24 24 25 24
22 23 22 22 22 22 22 22 22 22 21 22 22 22 21 21 21 21 21 21 22 22 21 21 21 21 21 20 20 21 21 22 22 22 22 23 24 24 25 25 25 26 26
23 23 23 23 23 23 23 23 22 22 21 22 22 23 22 22 23 23 23 22 22 22 22 22 21 21 21 21 21 21 22 23 23 23 23 24 25 25 25 26 26 27 27
24 24 23 24 23 23 23 23 23 22 22 22 23 23 23 23 24 24 23 23 23 23 23 23 22 21 22 22 22 22 22 23 24 24 24 24 25 25 25 26 26 27 28
25 25 25 25 24 24 22 23 22 21 22 22 23 23 24 24 23 23 24 23 24 24 23 23 23 23 23 23 23 23 23 23 23 24 25 25 25 25 25 26 27 28 29
26 26 26 26 25 24 24 23 23 23 23 23 24 24 24 23 23 23 23 24 24 23 23 22 23 23 23 23 24 23 23 24 24 24 25 26 26 25 25 26 27 28 29
27 27 27 26 26 25 25 24 24 24 24 24 24 24 24 23 23 22 23 23 23 22 22 22 23 23 24 24 24 24 24 24 25 25 26 26 25 26 26 26 27 28 28
Wind_Direction
346 341 333 325 314 308 308 301 290 286 284 284 280 283 285 282 275 269 261 252 248 245 245 246 248 245 240 240 248 248 243 240 242 244 247 249 250 249 250 251 255 257 261
344 345 337 332 317 305 301 295 287 285 282 281 279 278 279 278 277 266 255 249 247 246 246 247 248 249 248 247 251 247 244 244 246 247 250 252 253 253 251 254 256 257 261
340 335 331 326 315 310 305 295 285 281 286 283 282 279 280 275 266 256 249 246 249 249 246 244 245 249 251 251 250 248 249 250 251 252 253 254 257 253 255 253 255 257 260
336 335 331 324 317 312 316 304 292 287 293 290 285 285 283 277 269 254 245 244 252 252 252 248 247 248 251 252 252 252 253 254 256 256 256 255 257 255 256 254 253 253 256
331 334 334 326 320 318 311 310 303 303 298 293 290 287 285 279 267 257 255 253 254 256 257 252 249 250 252 254 255 255 257 258 261 264 265 264 260 256 254 254 253 254 253
323 325 330 331 326 320 312 310 306 305 302 297 290 289 287 280 274 266 262 257 256 259 261 256 254 252 253 258 257 259 259 257 260 266 269 270 264 259 253 253 252 253 252
321 320 318 321 326 321 316 316 314 310 304 297 292 288 287 285 279 273 270 261 256 258 262 259 258 258 259 263 263 262 258 258 261 268 270 269 264 260 256 253 252 255 257
314 313 308 306 308 310 309 309 308 309 307 299 293 290 285 282 286 277 276 267 262 261 262 262 260 263 260 265 267 263 258 257 261 269 274 271 266 261 257 253 251 254 256
307 305 304 301 300 301 301 302 305 305 305 303 300 293 286 286 288 284 275 274 271 266 264 264 263 264 264 263 261 261 263 262 265 268 270 270 265 257 256 255 255 258 258
298 300 299 295 295 293 292 294 298 300 301 298 294 292 285 283 291 287 276 275 280 275 269 268 267 268 265 264 264 265 265 266 263 269 274 272 264 259 256 255 258 262 263
301 298 295 293 294 293 290 290 292 293 294 296 297 295 287 282 286 286 283 278 278 280 274 270 271 272 270 268 269 267 266 266 269 271 275 273 268 265 261 260 260 262 263
299 298 295 295 297 295 292 290 291 294 295 297 296 294 289 283 284 284 283 280 278 280 279 276 272 274 272 269 269 269 268 268 268 269 272 273 271 267 266 265 263 263 263
296 293 291 292 293 294 294 292 293 293 293 294 293 291 287 284 283 282 282 279 278 280 280 279 275 273 273 271 270 271 271 268 268 268 268 269 270 269 269 270 267 265 266
290 290 288 290 290 290 291 290 289 290 291 291 290 287 285 284 283 281 282 281 279 277 278 277 278 275 272 272 273 274 275 274 271 271 270 270 272 272 272 272 271 269 269
285 287 287 288 288 288 287 287 287 288 288 288 289 287 284 283 281 280 281 282 281 280 280 278 278 278 275 274 273 273 273 273 273 271 271 272 272 273 272 273 272 271 269
282 285 284 285 283 282 284 286 287 287 285 284 286 286 285 283 281 279 279 280 280 279 280 282 279 278 277 276 274 274 273 271 273 274 273 272 272 271 272 272 272 271 269
281 282 283 284 283 280 282 283 283 284 282 283 283 284 283 282 280 280 280 280 281 281 281 282 282 281 280 277 276 275 276 275 273 273 273 272 271 270 269 270 271 272 270
278 279 280 281 282 282 280 282 281 281 282 282 282 282 281 280 278 277 279 279 279 279 278 279 281 281 281 280 279 277 280 279 276 274 274 274 272 270 269 271 272 273 272
276 276 277 278 279 282 280 281 280 281 282 282 282 281 281 280 277 276 277 277 277 278 278 277 278 279 281 281 280 280 280 280 278 276 274 274 275 273 271 272 273 274 274
275 275 276 276 277 279 279 280 280 280 281 280 280 280 281 281 278 277 278 277 277 278 279 277 277 280 280 280 279 280 279 279 279 279 278 277 277 276 275 276 276 274 273
273 273 274 275 275 276 277 278 278 278 279 279 278 278 279 280 278 277 277 277 277 277 277 277 279 281 281 278 277 277 277 277 277 278 279 279 279 277 276 277 277 276 274
273 273 273 274 274 274 275 276 276 277 278 279 279 278 278 279 278 277 275 275 275 275 276 276 277 279 279 278 277 278 278 276 276 277 279 279 278 277 277 276 276 275 275
273 272 274 274 273 274 274 276 277 277 278 279 278 276 277 278 279 277 276 274 273 272 273 274 276 276 278 278 276 277 278 278 277 278 279 280 279 276 276 277 277 276 275
272 272 272 272 273 273 275 276 275 277 278 279 279 278 276 276 278 277 276 275 272 271 272 275 275 276 278 278 277 278 280 281 281 281 281 283 282 280 277 277 277 277 276
269 269 272 272 271 271 274 275 273 275 275 276 277 277 277 276 276 276 275 274 274 271 273 274 276 277 277 278 278 279 281 282 283 284 283 283 283 281 280 279 278 278 277
269 269 270 269 269 270 273 274 274 274 275 275 276 276 275 275 275 275 275 275 274 272 273 274 275 276 277 277 278 278 280 282 284 285 284 284 283 281 282 281 280 278 277
Height
5879 5879 5878 5877 5877 5876 5876 5876 5876 5875 5875 5874 5874 5874 5874 5873 5873 5872 5872 5872 5872 5872 5872 5873 5873 5873 5874 5874 5875 5875 5875 5876 5876 5876 5877 5877 5877 5877 5877 5877 5877 5877 5877
5879 5878 5877 5877 5876 5875 5875 5874 5874 5874 5873 5873 5872 5872 5872 5872 5871 5870 5870 5870 5870 5870 5871 5871 5871 5871 5872 5872 5872 5873 5873 5873 5874 5874 5874 5874 5874 5875 5875 5875 5875 5875 5875
5878 5877 5876 5876 5875 5874 5873 5873 5872 5872 5872 5871 5871 5870 5870 5870 5869 5869 5869 5868 5868 5868 5868 5869 5869 5869 5869 5870 5870 5871 5871 5871 5871 5871 5871 5871 5871 5871 5872 5872 5872 5872 5872
5877 5876 5875 5874 5874 5873 5872 5871 5871 5870 5870 5869 5869 5869 5868 5868 5868 5867 5867 5866 5866 5866 5866 5866 5867 5867 5867 5867 5868 5868 5868 5868 5868 5868 5868 5868 5867 5868 5868 5868 5869 5869 5869
5876 5875 5874 5873 5872 5872 5871 5871 5870 5869 5868 5868 5867 5867 5866 5866 5865 5865 5865 5865 5865 5865 5864 5864 5864 5864 5865 5865 5864 5865 5865 5865 5865 5864 5864 5863 5863 5863 5864 5865 5865 5866 5866
5874 5873 5872 5871 5870 5870 5870 5869 5869 5868 5867 5866 5866 5865 5864 5864 5863 5863 5863 5863 5863 5863 5862 5862 5862 5862 5862 5862 5861 5861 5861 5861 5861 5860 5859 5858 5858 5858 5859 5861 5862 5863 5863
5873 5872 5871 5870 5869 5869 5868 5868 5867 5866 5865 5864 5864 5863 5862 5862 5861 5861 5861 5861 5861 5861 5860 5860 5860 5860 5860 5859 5859 5858 5857 5857 5857 5856 5855 5854 5854 5854 5855 5857 5858 5859 5860
5871 5870 5869 5869 5868 5867 5867 5866 5865 5864 5863 5862 5861 5860 5860 5860 5859 5859 5858 5858 5858 5858 5858 5857 5857 5857 5857 5856 5856 5855 5854 5854 5854 5853 5852 5850 5850 5850 5852 5853 5855 5856 5856
5869 5868 5867 5867 5866 5865 5865 5864 5863 5862 5861 5860 5859 5858 5858 5857 5857 5857 5856 5856 5855 5855 5855 5855 5854 5854 5854 5853 5853 5853 5852 5852 5852 5851 5850 5848 5848 5848 5849 5851 5852 5852 5853
5867 5866 5865 5864 5863 5863 5862 5861 5861 5860 5859 5858 5857 5856 5856 5855 5855 5854 5854 5853 5853 5852 5852 5852 5852 5851 5851 5850 5850 5850 5850 5849 5849 5848 5848 5847 5846 5847 5847 5848 5848 5849 5849
5864 5863 5862 5861 5860 5860 5859 5858 5858 5857 5856 5855 5854 5854 5853 5853 5852 5851 5851 5850 5850 5850 5849 5849 5848 5848 5848 5847 5847 5847 5847 5846 5846 5846 5846 5845 5844 5844 5845 5845 5845 5845 5845
5862 5860 5859 5858 5857 5856 5856 5855 5855 5854 5853 5852 5851 5851 5850 5850 5849 5849 5848 5848 5847 5847 5846 5845 5845 5845 5844 5844 5843 5843 5843 5843 5843 5842 5842 5842 5841 5841 5841 5841 5841 5841 5841
5858 5857 5856 5855 5854 5853 5853 5852 5851 5851 5850 5849 5848 5848 5847 5847 5846 5846 5845 5845 5844 5843 5843 5842 5842 5841 5841 5840 5840 5839 5839 5839 5838 5838 5838 5838 5837 5837 5837 5836 5836 5836 5836
5854 5853 5853 5852 5851 5850 5849 5848 5848 5847 5846 5845 5845 5844 5844 5843 5842 5842 5842 5841 5840 5839 5839 5838 5837 5837 5836 5836 5836 5835 5835 5834 5834 5833 5833 5833 5833 5832 5832 5832 5831 5831 5831
5850 5849 5848 5847 5846 5846 5845 5844 5843 5843 5842 5841 5841 5840 5839 5839 5838 5838 5837 5837 5836 5835 5834 5833 5833 5832 5832 5831 5831 5830 5830 5829 5828 5828 5828 5827 5827 5827 5826 5826 5826 5825 5825
5844 5844 5843 5842 5841 5841 5840 5839 5839 5838 5837 5837 5836 5836 5835 5834 5834 5833 5832 5832 5831 5830 5829 5829 5828 5827 5826 5826 5825 5825 5824 5824 5823 5822 5822 5821 5821 5821 5820 5820 5820 5820 5820
5839 5839 5838 5837 5836 5835 5834 5834 5833 5833 5832 5831 5831 5830 5830 5830 5829 5828 5827 5827 5826 5825 5824 5824 5823 5822 5821 5820 5820 5819 5818 5818 5817 5816 5815 5815 5815 5815 5814 5814 5814 5813 5813
5834 5833 5832 5831 5831 5830 5829 5828 5828 5827 5826 5826 5825 5825 5824 5824 5823 5823 5822 5822 5821 5820 5819 5818 5818 5817 5816 5815 5814 5813 5812 5812 5811 5810 5809 5809 5809 5808 5808 5808 5807 5807 5807
5828 5827 5826 5825 5825 5824 5823 5823 5822 5821 5820 5820 5819 5818 5818 5817 5817 5817 5816 5816 5815 5814 5813 5812 5812 5811 5810 5809 5809 5808 5806 5806 5805 5804 5803 5803 5802 5802 5801 5801 5801 5800 5800
5821 5820 5820 5819 5818 5818 5817 5817 5816 5815 5814 5814 5813 5812 5812 5811 5811 5810 5810 5809 5808 5808 5807 5806 5806 5805 5804 5803 5803 5802 5801 5800 5799 5798 5797 5796 5796 5795 5795 5794 5794 5793 5793
5814 5813 5813 5813 5812 5811 5811 5810 5809 5808 5808 5807 5807 5806 5805 5805 5804 5804 5803 5803 5802 5802 5801 5800 5799 5799 5798 5797 5796 5795 5795 5794 5793 5792 5791 5790 5789 5789 5787 5787 5786 5785 5785
5806 5806 5806 5805 5805 5804 5804 5803 5802 5801 5801 5800 5800 5799 5799 5798 5797 5797 5796 5796 5796 5795 5795 5794 5793 5792 5792 5791 5790 5789 5788 5787 5786 5786 5784 5783 5782 5781 5780 5779 5778 5778 5777
5799 5799 5798 5798 5797 5797 5796 5796 5795 5795 5794 5794 5793 5792 5791 5791 5790 5790 5789 5789 5788 5788 5788 5787 5786 5786 5785 5784 5783 5782 5781 5780 5779 5778 5777 5776 5774 5773 5772 5771 5770 5769 5769
5791 5791 5790 5790 5790 5790 5789 5789 5788 5788 5787 5787 5786 5785 5784 5783 5783 5782 5782 5782 5781 5781 5780 5780 5780 5779 5778 5777 5776 5776 5774 5773 5772 5770 5769 5768 5766 5765 5764 5763 5762 5761 5760
5783 5783 5782 5782 5782 5782 5782 5781 5781 5781 5780 5780 5779 5778 5777 5776 5776 5775 5775 5775 5774 5774 5773 5773 5772 5771 5770 5770 5769 5768 5767 5766 5764 5763 5761 5760 5758 5757 5756 5755 5753 5752 5751
5774 5775 5775 5774 5774 5774 5774 5774 5774 5774 5773 5772 5771 5771 5770 5770 5769 5769 5769 5768 5768 5767 5766 5766 5765 5764 5763 5762 5761 5760 5759 5758 5756 5755 5753 5752 5750 5748 5748 5746 5745 5743 5742